| time (UTC) | temp C | wind direction | speed KPH | gust KPH | rain 1hr cm | rain 24hr cm | rain mn cm | humidity % | barometer mb |
| 20260506113356 | 8 | 360 | 1.6 | 4.8 | 0.00 | 1.85 | 0.94 | 97 | 1005.3 |
| 20260506112355 | 8 | 360 | 0.0 | 4.8 | 0.00 | 1.85 | 0.94 | 97 | 1005.2 |
| 20260506111354 | 8 | 360 | 0.0 | 3.2 | 0.00 | 1.85 | 0.94 | 97 | 1005.1 |
| 20260506110355 | 8 | 360 | 0.0 | 1.6 | 0.00 | 1.85 | 0.94 | 97 | 1005.1 |
| 20260506105355 | 8 | 360 | 0.0 | 1.6 | 0.00 | 1.85 | 0.94 | 97 | 1005.2 |
| 20260506104354 | 8 | 360 | 3.2 | 6.4 | 0.00 | 1.85 | 0.94 | 97 | 1005.2 |
| 20260506103354 | 8 | 360 | 1.6 | 4.8 | 0.00 | 1.85 | 0.94 | 97 | 1005.1 |
| 20260506102355 | 8 | 360 | 0.0 | 3.2 | 0.00 | 1.85 | 0.94 | 97 | 1005.0 |
| 20260506101355 | 8 | 360 | 0.0 | 3.2 | 0.00 | 1.85 | 0.94 | 97 | 1004.8 |
| 20260506100354 | 8 | 360 | 1.6 | 3.2 | 0.00 | 1.85 | 0.94 | 97 | 1004.9 |
| 20260506095356 | 8 | 360 | 0.0 | 1.6 | 0.00 | 1.85 | 0.94 | 97 | 1004.8 |
| 20260506094355 | 8 | 360 | 0.0 | 1.6 | 0.00 | 1.85 | 0.94 | 97 | 1004.8 |
| 20260506093355 | 8 | 360 | 0.0 | 1.6 | 0.00 | 1.85 | 0.94 | 97 | 1004.9 |
| 20260506092355 | 8 | 360 | 1.6 | 6.4 | 0.00 | 1.85 | 0.94 | 97 | 1004.8 |
| 20260506091356 | 8 | 360 | 0.0 | 1.6 | 0.03 | 1.85 | 0.94 | 97 | 1004.8 |
| 20260506090355 | 8 | 360 | 0.0 | 1.6 | 0.03 | 1.85 | 0.94 | 97 | 1004.6 |
| 20260506085355 | 8 | 360 | 0.0 | 1.6 | 0.03 | 1.85 | 0.94 | 97 | 1004.4 |
| 20260506084354 | 8 | 360 | 0.0 | 3.2 | 0.03 | 1.85 | 0.94 | 97 | 1004.4 |
| 20260506083355 | 8 | 360 | 0.0 | 1.6 | 0.03 | 1.85 | 0.94 | 97 | 1004.3 |
| 20260506082355 | 8 | 360 | 0.0 | 3.2 | 0.03 | 1.85 | 0.94 | 97 | 1004.1 |
| 20260506081356 | 8 | 360 | 0.0 | 3.2 | 0.00 | 1.83 | 0.91 | 97 | 1004.2 |
| 20260506080355 | 8 | 360 | 0.0 | 1.6 | 0.03 | 1.83 | 0.91 | 97 | 1004.2 |
| 20260506073355 | 8 | 360 | 0.0 | 1.6 | 0.08 | 1.85 | 0.91 | 97 | 1004.1 |
| 20260506072354 | 8 | 360 | 0.0 | 1.6 | 0.08 | 1.85 | 0.91 | 97 | 1004.1 |
| 20260506071356 | 8 | 360 | 0.0 | 3.2 | 0.10 | 1.85 | 0.91 | 97 | 1004.1 |
| 20260506070355 | 8 | 360 | 0.0 | 1.6 | 0.08 | 1.83 | 0.91 | 97 | 1004.1 |
| 20260506062355 | 8 | 360 | 0.0 | 1.6 | 0.08 | 1.75 | 0.84 | 97 | 1003.8 |
| 20260506061354 | 8 | 360 | 0.0 | 1.6 | 0.08 | 1.73 | 0.81 | 97 | 1003.8 |
| 20260506060354 | 8 | 360 | 0.0 | 1.6 | 0.08 | 1.73 | 0.81 | 97 | 1003.7 |
| 20260506051354 | 8 | 360 | 0.0 | 1.6 | 0.03 | 1.70 | 0.74 | 97 | 1003.7 |
| 20260506050355 | 8 | 360 | 0.0 | 3.2 | 0.03 | 1.70 | 0.74 | 97 | 1003.7 |
| 20260506044354 | 8 | 360 | 0.0 | 1.6 | 0.05 | 1.83 | 0.74 | 97 | 1003.7 |
| 20260506043355 | 8 | 360 | 0.0 | 1.6 | 0.03 | 1.80 | 0.74 | 97 | 1003.7 |
| 20260506042354 | 8 | 360 | 0.0 | 1.6 | 0.03 | 1.80 | 0.74 | 97 | 1003.7 |
| 20260506041356 | 8 | 360 | 0.0 | 1.6 | 0.03 | 1.80 | 0.74 | 97 | 1003.7 |
| 20260506040355 | 9 | 360 | 0.0 | 1.6 | 0.03 | 1.80 | 0.74 | 97 | 1003.7 |
| 20260506035355 | 9 | 360 | 0.0 | 4.8 | 0.05 | 1.80 | 0.74 | 97 | 1003.7 |
| 20260506034354 | 9 | 360 | 0.0 | 1.6 | 0.05 | 1.78 | 0.71 | 97 | 1003.7 |
| 20260506033354 | 9 | 360 | 0.0 | 3.2 | 0.05 | 1.78 | 0.71 | 97 | 1003.8 |
| 20260506032354 | 9 | 360 | 0.0 | 1.6 | 0.08 | 1.78 | 0.71 | 97 | 1003.7 |
| 20260506031355 | 9 | 360 | 0.0 | 1.6 | 0.08 | 1.78 | 0.71 | 97 | 1003.8 |
| 20260506030354 | 9 | 360 | 0.0 | 0.0 | 0.08 | 1.78 | 0.71 | 97 | 1003.9 |
| 20260506025354 | 9 | 360 | 0.0 | 1.6 | 0.08 | 1.80 | 0.69 | 97 | 1004.0 |
| 20260506024355 | 9 | 360 | 0.0 | 1.6 | 0.08 | 1.78 | 0.66 | 97 | 1004.1 |
| 20260506023354 | 9 | 360 | 0.0 | 1.6 | 0.08 | 1.78 | 0.66 | 97 | 1004.1 |
| 20260506022356 | 9 | 360 | 0.0 | 1.6 | 0.08 | 1.75 | 0.64 | 97 | 1004.2 |
| 20260506021355 | 9 | 360 | 0.0 | 1.6 | 0.05 | 1.73 | 0.61 | 97 | 1004.2 |
| 20260506020354 | 9 | 360 | 0.0 | 1.6 | 0.05 | 1.73 | 0.61 | 97 | 1004.2 |
| 20260506015356 | 9 | 360 | 0.0 | 1.6 | 0.08 | 1.73 | 0.61 | 97 | 1004.2 |
| 20260506014355 | 9 | 360 | 0.0 | 1.6 | 0.08 | 1.73 | 0.58 | 97 | 1004.2 |
| 20260506013354 | 9 | 360 | 0.0 | 1.6 | 0.10 | 1.73 | 0.58 | 97 | 1004.4 |
| 20260506012354 | 9 | 360 | 0.0 | 1.6 | 0.10 | 1.70 | 0.58 | 97 | 1004.4 |
| 20260506011355 | 9 | 360 | 0.0 | 1.6 | 0.13 | 1.70 | 0.58 | 97 | 1004.4 |
| 20260506010355 | 9 | 360 | 0.0 | 1.6 | 0.15 | 1.70 | 0.58 | 97 | 1004.5 |
| 20260506005354 | 9 | 360 | 0.0 | 1.6 | 0.15 | 1.68 | 0.56 | 97 | 1004.5 |
| 20260506004354 | 9 | 360 | 0.0 | 1.6 | 0.18 | 1.65 | 0.53 | 97 | 1004.6 |
| 20260506003355 | 9 | 360 | 0.0 | 3.2 | 0.15 | 1.60 | 0.48 | 97 | 1004.6 |
| 20260506002354 | 9 | 360 | 0.0 | 1.6 | 0.15 | 1.57 | 0.46 | 97 | 1004.7 |
| 20260506001356 | 9 | 360 | 0.0 | 1.6 | 0.18 | 1.55 | 0.43 | 97 | 1004.8 |
| 20260506000355 | 9 | 360 | 0.0 | 1.6 | 0.20 | 1.55 | 0.41 | 97 | 1004.9 |
| 20260505235354 | 9 | 360 | 0.0 | 1.6 | 0.25 | 1.52 | 0.41 | 97 | 1004.9 |
| 20260505234354 | 9 | 360 | 0.0 | 1.6 | 0.25 | 1.47 | 0.36 | 97 | 1005.0 |
| 20260505233355 | 9 | 360 | 0.0 | 0.0 | 0.25 | 1.45 | 0.33 | 97 | 1005.1 |
| 20260505232355 | 9 | 360 | 0.0 | 1.6 | 0.25 | 1.42 | 0.30 | 97 | 1005.1 |
| 20260505231356 | 9 | 360 | 0.0 | 1.6 | 0.23 | 1.40 | 0.25 | 97 | 1005.2 |
| 20260505230355 | 9 | 360 | 0.0 | 1.6 | 0.23 | 1.35 | 0.23 | 97 | 1005.2 |
| 20260505225355 | 9 | 360 | 0.0 | 1.6 | 0.18 | 1.27 | 0.15 | 97 | 1005.3 |
| 20260505224356 | 9 | 360 | 0.0 | 1.6 | 0.15 | 1.24 | 0.10 | 97 | 1005.3 |
| 20260505223355 | 9 | 360 | 0.0 | 4.8 | 0.15 | 1.22 | 0.08 | 97 | 1005.4 |
| 20260505222355 | 9 | 360 | 0.0 | 1.6 | 0.15 | 1.19 | 0.08 | 97 | 1005.4 |
| 20260505221354 | 9 | 360 | 0.0 | 3.2 | 0.18 | 1.17 | 0.05 | 97 | 1005.5 |
| 20260505220356 | 9 | 360 | 0.0 | 1.6 | 0.18 | 1.12 | 0.00 | 97 | 1005.5 |
| 20260505215356 | 9 | 360 | 0.0 | 1.6 | 0.18 | 1.09 | 1.09 | 97 | 1005.5 |
| 20260505214354 | 9 | 360 | 0.0 | 1.6 | 0.20 | 1.07 | 1.07 | 97 | 1005.6 |
| 20260505213356 | 9 | 360 | 0.0 | 1.6 | 0.20 | 1.07 | 1.07 | 97 | 1005.7 |
| 20260505212355 | 10 | 360 | 0.0 | 1.6 | 0.20 | 1.04 | 1.04 | 97 | 1005.8 |
| 20260505211354 | 10 | 360 | 0.0 | 1.6 | 0.18 | 0.99 | 0.99 | 97 | 1005.8 |
| 20260505210355 | 10 | 360 | 0.0 | 3.2 | 0.15 | 0.94 | 0.94 | 97 | 1005.9 |
| 20260505205355 | 10 | 360 | 0.0 | 1.6 | 0.18 | 0.94 | 0.91 | 97 | 1005.9 |
| 20260505204354 | 10 | 360 | 0.0 | 1.6 | 0.15 | 0.91 | 0.89 | 97 | 1005.9 |
| 20260505203355 | 10 | 360 | 0.0 | 3.2 | 0.15 | 0.89 | 0.86 | 96 | 1005.9 |
| 20260505202354 | 10 | 360 | 1.6 | 6.4 | 0.18 | 0.86 | 0.84 | 97 | 1005.9 |
| 20260505201355 | 10 | 360 | 0.0 | 3.2 | 0.18 | 0.84 | 0.81 | 97 | 1005.9 |
| 20260505200355 | 10 | 360 | 0.0 | 3.2 | 0.18 | 0.81 | 0.79 | 96 | 1005.9 |
| 20260505195355 | 10 | 360 | 1.6 | 4.8 | 0.18 | 0.76 | 0.74 | 96 | 1005.9 |
| 20260505194355 | 10 | 360 | 0.0 | 3.2 | 0.18 | 0.74 | 0.74 | 97 | 1005.8 |
| 20260505193354 | 10 | 360 | 0.0 | 1.6 | 0.18 | 0.74 | 0.71 | 97 | 1005.9 |
| 20260505192356 | 10 | 360 | 0.0 | 1.6 | 0.15 | 0.69 | 0.66 | 97 | 1005.9 |
| 20260505191355 | 10 | 360 | 0.0 | 1.6 | 0.15 | 0.66 | 0.64 | 96 | 1005.8 |
| 20260505190355 | 10 | 360 | 0.0 | 6.4 | 0.15 | 0.64 | 0.61 | 96 | 1005.9 |
| 20260505185354 | 10 | 360 | 0.0 | 1.6 | 0.13 | 0.58 | 0.58 | 96 | 1005.8 |
| 20260505184354 | 10 | 360 | 0.0 | 4.8 | 0.13 | 0.58 | 0.56 | 96 | 1005.9 |
| 20260505183355 | 10 | 360 | 1.6 | 3.2 | 0.13 | 0.56 | 0.53 | 96 | 1005.9 |
| 20260505182354 | 10 | 360 | 0.0 | 6.4 | 0.15 | 0.53 | 0.51 | 96 | 1005.9 |
| 20260505181356 | 10 | 360 | 0.0 | 3.2 | 0.13 | 0.51 | 0.48 | 96 | 1005.8 |
| 20260505180356 | 11 | 360 | 0.0 | 3.2 | 0.13 | 0.48 | 0.46 | 96 | 1005.9 |
| 20260505175355 | 11 | 360 | 1.6 | 3.2 | 0.13 | 0.48 | 0.43 | 96 | 1006.0 |
| 20260505174355 | 11 | 360 | 0.0 | 4.8 | 0.10 | 0.46 | 0.41 | 96 | 1006.0 |
| 20260505173354 | 11 | 360 | 0.0 | 6.4 | 0.08 | 0.43 | 0.41 | 96 | 1006.0 |
| 20260505172355 | 11 | 360 | 1.6 | 4.8 | 0.05 | 0.41 | 0.36 | 96 | 1006.0 |
| 20260505171355 | 11 | 360 | 0.0 | 4.8 | 0.05 | 0.41 | 0.36 | 96 | 1006.1 |
| 20260505170354 | 11 | 360 | 0.0 | 3.2 | 0.03 | 0.38 | 0.33 | 96 | 1006.0 |
| 20260505165354 | 11 | 360 | 0.0 | 3.2 | 0.03 | 0.41 | 0.30 | 96 | 1006.1 |
| 20260505164355 | 11 | 360 | 1.6 | 4.8 | 0.05 | 0.41 | 0.30 | 96 | 1006.0 |
| 20260505163355 | 11 | 360 | 0.0 | 4.8 | 0.05 | 0.41 | 0.30 | 95 | 1006.1 |
| 20260505162354 | 11 | 360 | 0.0 | 4.8 | 0.08 | 0.41 | 0.30 | 95 | 1006.1 |
| 20260505161354 | 11 | 360 | 0.0 | 4.8 | 0.08 | 0.41 | 0.30 | 95 | 1006.2 |
| 20260505160356 | 11 | 360 | 1.6 | 3.2 | 0.08 | 0.41 | 0.30 | 95 | 1006.2 |
| 20260505153354 | 12 | 360 | 0.0 | 3.2 | 0.05 | 0.41 | 0.25 | 94 | 1006.2 |
| 20260505152355 | 12 | 360 | 1.6 | 4.8 | 0.03 | 0.38 | 0.25 | 94 | 1006.3 |
| 20260505151355 | 12 | 360 | 0.0 | 1.6 | 0.03 | 0.38 | 0.25 | 93 | 1006.4 |
| 20260505150354 | 12 | 360 | 1.6 | 6.4 | 0.00 | 0.36 | 0.23 | 93 | 1006.4 |
| 20260505140354 | 14 | 360 | 0.0 | 3.2 | 0.00 | 0.41 | 0.23 | 91 | 1006.6 |
| 20260505124353 | 14 | 360 | 0.0 | 4.8 | 0.00 | 0.41 | 0.23 | 89 | 1007.3 |
| 20260505123122 | 14 | 360 | 0.0 | 4.8 | 0.00 | 0.41 | 0.23 | 89 | 1007.3 |
| 20260505122124 | 14 | 360 | 0.0 | 3.2 | 0.00 | 0.41 | 0.23 | 89 | 1007.2 |
| 20260505121123 | 14 | 360 | 1.6 | 4.8 | 0.00 | 0.41 | 0.23 | 89 | 1007.3 |
| 20260505120123 | 14 | 360 | 0.0 | 3.2 | 0.00 | 0.41 | 0.23 | 88 | 1007.5 |
| 20260505115122 | 14 | 360 | 0.0 | 3.2 | 0.00 | 0.41 | 0.23 | 88 | 1007.5 |